Time,TemperatureF,DewpointF,PressureIn,WindDirection,WindDirectionDegrees,WindSpeedMPH,WindSpeedGustMPH,Humidity,HourlyPrecipIn,Conditions,Clouds,dailyrainin,SoftwareType,DateUTC
2013-08-13 00:12:00,71.0,66.0,29.94,SE,132,0.0,4.0,84,0.00,,,0.01,,2013-08-13 05:12:00,
2013-08-13 00:21:00,70.0,65.0,29.94,SE,132,1.0,4.0,85,0.00,,,0.01,,2013-08-13 05:21:00,
2013-08-13 00:42:00,70.0,66.0,29.95,SE,132,1.0,3.0,86,0.00,,,0.01,,2013-08-13 05:42:00,
2013-08-13 00:52:00,70.0,65.0,29.95,SE,132,0.0,2.0,85,0.00,,,0.01,,2013-08-13 05:52:00,
2013-08-13 01:11:00,70.0,66.0,29.95,SE,132,0.0,1.0,87,0.00,,,0.01,,2013-08-13 06:11:00,
2013-08-13 01:21:00,69.0,65.0,29.95,SE,132,0.0,2.0,87,0.00,,,0.01,,2013-08-13 06:21:00,
2013-08-13 01:42:00,69.0,65.0,29.95,SE,132,0.0,3.0,87,0.00,,,0.01,,2013-08-13 06:42:00,
2013-08-13 01:52:00,69.0,65.0,29.95,SE,136,1.0,3.0,88,0.00,,,0.01,,2013-08-13 06:52:00,
2013-08-13 02:12:00,68.0,65.0,29.95,SE,141,2.0,8.0,89,0.00,,,0.01,,2013-08-13 07:12:00,
2013-08-13 02:21:00,68.0,65.0,29.95,SE,131,2.0,6.0,89,0.00,,,0.01,,2013-08-13 07:21:00,
2013-08-13 02:42:00,68.0,65.0,29.95,SE,134,2.0,7.0,90,0.00,,,0.01,,2013-08-13 07:42:00,
2013-08-13 02:52:00,68.0,65.0,29.96,SE,138,1.0,6.0,90,0.00,,,0.01,,2013-08-13 07:52:00,
2013-08-13 03:11:00,68.0,65.0,29.95,SE,132,2.0,8.0,89,0.00,,,0.01,,2013-08-13 08:11:00,
2013-08-13 03:22:00,68.0,65.0,29.95,SE,128,2.0,5.0,89,0.00,,,0.01,,2013-08-13 08:22:00,
2013-08-13 03:42:00,68.0,65.0,29.94,SE,129,3.0,5.0,89,0.00,,,0.01,,2013-08-13 08:42:00,
2013-08-13 03:52:00,68.0,64.0,29.94,SE,131,1.0,9.0,88,0.00,,,0.01,,2013-08-13 08:52:00,
2013-08-13 04:11:00,68.0,64.0,29.94,SE,135,0.0,7.0,88,0.00,,,0.01,,2013-08-13 09:11:00,
2013-08-13 04:22:00,67.0,63.0,29.94,SE,135,0.0,3.0,88,0.00,,,0.01,,2013-08-13 09:22:00,
2013-08-13 04:43:00,67.0,63.0,29.95,SE,135,0.0,4.0,88,0.00,,,0.01,,2013-08-13 09:43:00,
2013-08-13 04:53:00,67.0,63.0,29.95,SE,135,1.0,4.0,88,0.00,,,0.01,,2013-08-13 09:53:00,
2013-08-13 05:12:00,67.0,63.0,29.95,SE,135,0.0,3.0,88,0.00,,,0.01,,2013-08-13 10:12:00,
2013-08-13 05:23:00,67.0,63.0,29.95,SE,145,0.0,6.0,87,0.00,,,0.01,,2013-08-13 10:23:00,
2013-08-13 05:42:00,67.0,63.0,29.96,SE,145,0.0,3.0,87,0.00,,,0.01,,2013-08-13 10:42:00,
2013-08-13 05:52:00,67.0,63.0,29.95,SE,145,1.0,3.0,87,0.00,,,0.01,,2013-08-13 10:52:00,
2013-08-13 06:11:00,67.0,63.0,29.95,SE,145,0.0,3.0,88,0.00,,,0.01,,2013-08-13 11:11:00,
2013-08-13 06:22:00,66.0,63.0,29.95,SE,145,1.0,3.0,89,0.00,,,0.00,,2013-08-13 11:22:00,
2013-08-13 06:42:00,66.0,63.0,29.96,SE,145,0.0,1.0,90,0.00,,,0.00,,2013-08-13 11:42:00,
2013-08-13 06:52:00,66.0,63.0,29.96,SE,144,1.0,5.0,90,0.00,,,0.00,,2013-08-13 11:52:00,
2013-08-13 07:12:00,66.0,63.0,29.96,SE,144,0.0,1.0,91,0.00,,,0.00,,2013-08-13 12:12:00,
2013-08-13 07:21:00,66.0,63.0,29.97,SE,144,0.0,5.0,90,0.00,,,0.00,,2013-08-13 12:21:00,
2013-08-13 07:42:00,66.0,63.0,29.97,SE,144,0.0,2.0,90,0.00,,,0.00,,2013-08-13 12:42:00,
2013-08-13 07:52:00,65.0,62.0,29.98,SE,127,0.0,3.0,91,0.00,,,0.00,,2013-08-13 12:52:00,
2013-08-13 08:11:00,65.0,62.0,29.99,ESE,121,0.0,3.0,91,0.00,,,0.00,,2013-08-13 13:11:00,
2013-08-13 08:22:00,65.0,63.0,30.02,ENE,67,4.0,8.0,92,0.00,,,0.00,,2013-08-13 13:22:00,
2013-08-13 08:42:00,64.0,59.0,30.02,NNE,23,4.0,13.0,83,0.00,,,0.00,,2013-08-13 13:42:00,
2013-08-13 08:52:00,63.0,59.0,30.04,NNE,17,6.0,13.0,87,0.00,,,0.00,,2013-08-13 13:52:00,
2013-08-13 09:11:00,61.0,59.0,30.04,ENE,66,4.0,11.0,92,0.28,,,0.28,,2013-08-13 14:11:00,
2013-08-13 09:22:00,61.0,60.0,30.04,NE,56,1.0,10.0,95,0.36,,,0.36,,2013-08-13 14:22:00,
2013-08-13 09:42:00,61.0,60.0,30.04,ESE,108,1.0,5.0,95,0.37,,,0.37,,2013-08-13 14:42:00,
2013-08-13 09:52:00,61.0,60.0,30.03,SSE,152,3.0,5.0,95,0.37,,,0.37,,2013-08-13 14:52:00,
2013-08-13 10:11:00,62.0,61.0,30.02,SE,134,2.0,7.0,95,0.08,,,0.37,,2013-08-13 15:11:00,
2013-08-13 10:21:00,62.0,61.0,30.01,SE,137,2.0,5.0,95,0.01,,,0.37,,2013-08-13 15:21:00,
2013-08-13 10:35:00,62.0,61.0,30.01,SE,137,2.0,5.0,95,0.01,,,0.37,,2013-08-13 15:35:00,
2013-08-13 10:44:00,62.0,61.0,30.01,SE,137,2.0,5.0,95,0.01,,,0.37,,2013-08-13 15:44:00,
2013-08-13 10:54:00,64.0,60.0,30.02,SE,142,2.0,6.0,87,0.00,,,0.37,,2013-08-13 15:54:00,
2013-08-13 11:13:00,66.0,61.0,30.01,SE,143,4.0,8.0,84,0.00,,,0.37,,2013-08-13 16:13:00,
2013-08-13 11:23:00,66.0,60.0,29.99,SSE,150,5.0,12.0,80,0.00,,,0.37,,2013-08-13 16:23:00,
2013-08-13 11:54:00,66.0,60.0,30.01,SSE,148,3.0,7.0,80,0.00,,,0.37,,2013-08-13 16:54:00,
2013-08-13 12:16:00,68.0,61.0,30.01,SE,127,4.0,10.0,77,0.00,,,0.37,,2013-08-13 17:16:00,
2013-08-13 12:27:00,69.0,60.0,30.01,SE,142,3.0,9.0,74,0.00,,,0.37,,2013-08-13 17:27:00,
2013-08-13 12:46:00,-999.0,-99.9,30.01,SE,134,5.0,9.0,71,0.00,,,0.37,,2013-08-13 17:46:00,
2013-08-13 12:56:00,70.0,60.0,30.00,SE,140,4.0,11.0,70,0.00,,,0.37,,2013-08-13 17:56:00,
2013-08-13 13:15:00,71.0,60.0,30.01,SE,146,4.0,10.0,68,0.00,,,0.37,,2013-08-13 18:15:00,
2013-08-13 13:25:00,72.0,60.0,30.00,SE,146,5.0,12.0,67,0.00,,,0.37,,2013-08-13 18:25:00,
2013-08-13 13:44:00,73.0,60.0,30.01,SE,131,2.0,11.0,64,0.00,,,0.37,,2013-08-13 18:44:00,
2013-08-13 13:56:00,74.0,60.0,30.00,SSE,160,6.0,14.0,61,0.00,,,0.37,,2013-08-13 18:56:00,
2013-08-13 14:14:00,74.0,61.0,30.00,SSE,167,1.0,9.0,65,0.00,,,0.37,,2013-08-13 19:14:00,
2013-08-13 14:24:00,75.0,60.0,30.00,SE,139,4.0,10.0,60,0.00,,,0.37,,2013-08-13 19:24:00,
2013-08-13 14:44:00,75.0,61.0,30.00,SSE,155,5.0,10.0,62,0.00,,,0.37,,2013-08-13 19:44:00,
2013-08-13 14:55:00,75.0,61.0,30.01,SE,146,4.0,9.0,62,0.00,,,0.37,,2013-08-13 19:55:00,
2013-08-13 15:15:00,76.0,61.0,30.00,NE,37,4.0,10.0,60,0.00,,,0.37,,2013-08-13 20:15:00,
2013-08-13 15:22:00,77.0,62.0,30.01,SE,142,3.0,8.0,59,0.00,,,0.37,,2013-08-13 20:22:00,
2013-08-13 15:53:00,78.0,62.0,30.00,NE,49,2.0,6.0,59,0.00,,,0.37,,2013-08-13 20:53:00,
2013-08-13 16:11:00,78.0,62.0,29.99,SSE,147,4.0,9.0,59,0.00,,,0.37,,2013-08-13 21:11:00,
2013-08-13 16:24:00,78.0,62.0,29.99,SE,136,5.0,13.0,59,0.00,,,0.37,,2013-08-13 21:24:00,
2013-08-13 16:46:00,78.0,62.0,29.98,SSE,147,2.0,9.0,57,0.00,,,0.37,,2013-08-13 21:46:00,
2013-08-13 16:54:00,77.0,61.0,29.98,SE,133,3.0,8.0,58,0.00,,,0.37,,2013-08-13 21:54:00,
2013-08-13 17:13:00,77.0,62.0,29.98,South,180,2.0,9.0,60,0.00,,,0.37,,2013-08-13 22:13:00,
2013-08-13 17:22:00,77.0,63.0,29.98,SSE,155,3.0,11.0,62,0.00,,,0.37,,2013-08-13 22:22:00,
2013-08-13 17:50:00,76.0,62.0,29.97,SE,144,2.0,6.0,63,0.00,,,0.37,,2013-08-13 22:50:00,
2013-08-13 17:56:00,75.0,64.0,29.97,SE,142,5.0,9.0,68,0.00,,,0.37,,2013-08-13 22:56:00,
2013-08-13 18:13:00,74.0,64.0,29.97,SE,138,4.0,8.0,72,0.00,,,0.37,,2013-08-13 23:13:00,
2013-08-13 18:26:00,74.0,65.0,29.97,SE,130,3.0,9.0,73,0.00,,,0.37,,2013-08-13 23:26:00,
2013-08-13 18:46:00,74.0,65.0,29.97,SE,138,6.0,10.0,74,0.00,,,0.37,,2013-08-13 23:46:00,
2013-08-13 18:56:00,73.0,65.0,29.97,SE,128,4.0,10.0,75,0.00,,,0.37,,2013-08-13 23:56:00,
2013-08-13 19:11:00,73.0,65.0,29.97,SE,140,5.0,11.0,75,0.00,,,0.37,,2013-08-14 00:11:00,
2013-08-13 19:22:00,73.0,65.0,29.97,SE,140,3.0,7.0,76,0.00,,,0.37,,2013-08-14 00:22:00,
2013-08-13 19:42:00,72.0,64.0,29.97,SE,144,1.0,6.0,77,0.00,,,0.37,,2013-08-14 00:42:00,
2013-08-13 19:52:00,72.0,64.0,29.97,SSE,148,1.0,6.0,77,0.00,,,0.37,,2013-08-14 00:52:00,
2013-08-13 20:11:00,72.0,64.0,29.98,SE,139,0.0,3.0,77,0.00,,,0.37,,2013-08-14 01:11:00,
2013-08-13 20:21:00,72.0,65.0,29.98,SE,139,1.0,4.0,79,0.00,,,0.37,,2013-08-14 01:21:00,
2013-08-13 20:42:00,71.0,65.0,29.98,SE,135,1.0,4.0,80,0.00,,,0.37,,2013-08-14 01:42:00,
2013-08-13 20:52:00,71.0,66.0,29.97,SE,145,1.0,4.0,83,0.00,,,0.37,,2013-08-14 01:52:00,
2013-08-13 21:11:00,70.0,65.0,29.97,SE,134,1.0,4.0,85,0.00,,,0.37,,2013-08-14 02:11:00,
2013-08-13 21:22:00,69.0,65.0,29.98,ESE,115,0.0,4.0,86,0.00,,,0.37,,2013-08-14 02:22:00,
2013-08-13 21:42:00,69.0,65.0,29.98,SE,139,2.0,7.0,87,0.00,,,0.37,,2013-08-14 02:42:00,
2013-08-13 21:52:00,68.0,64.0,29.99,SSE,147,3.0,7.0,88,0.00,,,0.37,,2013-08-14 02:52:00,
2013-08-13 22:11:00,68.0,65.0,30.00,SSE,150,2.0,5.0,89,0.00,,,0.37,,2013-08-14 03:11:00,
2013-08-13 22:22:00,67.0,64.0,30.00,SSE,147,2.0,7.0,90,0.00,,,0.37,,2013-08-14 03:22:00,
2013-08-13 22:43:00,67.0,64.0,30.00,SE,144,5.0,8.0,90,0.00,,,0.37,,2013-08-14 03:43:00,
2013-08-13 22:53:00,67.0,64.0,30.01,SE,132,3.0,8.0,90,0.00,,,0.37,,2013-08-14 03:53:00,
2013-08-13 23:12:00,67.0,64.0,30.01,SE,136,2.0,6.0,89,0.00,,,0.37,,2013-08-14 04:12:00,
2013-08-13 23:23:00,67.0,64.0,30.01,SE,138,4.0,8.0,89,0.00,,,0.37,,2013-08-14 04:23:00,
2013-08-13 23:42:00,67.0,64.0,30.01,SE,138,5.0,9.0,89,0.00,,,0.37,,2013-08-14 04:42:00,
2013-08-13 23:52:00,66.0,63.0,30.00,SE,144,4.0,10.0,89,0.00,,,0.37,,2013-08-14 04:52:00,